• In Spain
  • List of Countries
  • For 7 days
  • Water Temperature
  • Satellite Maps
  • Weather Map
  • Weather Widgets
  • user-avatar
    Login

    Hourly Weather Irbid

    Today, 19 September, Wednesday

    Time Temperature Precipitation Wind Pressure Humidity
    00:00 +24°C° 0 mm 2 mps 710 mmHg 72%
    01:00 +24°C° 0 mm 2 mps 709 mmHg 74%
    02:00 +23°C° 0 mm 2 mps 709 mmHg 77%
    03:00 +23°C° 0 mm 1 mps 709 mmHg 78%
    04:00 +23°C° 0 mm 1 mps 709 mmHg 80%
    05:00 +22°C° 0 mm 1 mps 709 mmHg 81%
    06:00 +24°C° 0 mm 2 mps 710 mmHg 74%
    07:00 +25°C° 0 mm 2 mps 710 mmHg 66%
    08:00 +26°C° 0 mm 3 mps 711 mmHg 56%
    09:00 +28°C° 0 mm 3 mps 711 mmHg 50%
    10:00 +29°C° 0 mm 4 mps 711 mmHg 43%
    11:00 +32°C° 0 mm 4 mps 711 mmHg 37%
    12:00 +33°C° 0 mm 5 mps 711 mmHg 35%
    13:00 +33°C° 0 mm 5 mps 711 mmHg 33%
    14:00 +33°C° 0 mm 6 mps 711 mmHg 35%
    15:00 +32°C° 0 mm 5 mps 711 mmHg 37%
    16:00 +32°C° 0 mm 5 mps 711 mmHg 39%
    17:00 +30°C° 0 mm 5 mps 710 mmHg 41%
    18:00 +29°C° 0 mm 4 mps 711 mmHg 46%
    19:00 +28°C° 0 mm 4 mps 711 mmHg 51%
    20:00 +27°C° 0 mm 3 mps 711 mmHg 55%
    21:00 +26°C° 0 mm 3 mps 711 mmHg 59%
    22:00 +26°C° 0 mm 2 mps 711 mmHg 62%
    23:00 +25°C° 0 mm 2 mps 711 mmHg 66%

    Tomorrow, 20 September, Thursday

    Time Temperature Precipitation Wind Pressure Humidity
    00:00 +25°C° 0 mm 2 mps 711 mmHg 69%
    01:00 +24°C° 0 mm 2 mps 711 mmHg 71%
    02:00 +24°C° 0 mm 2 mps 711 mmHg 74%
    03:00 +23°C° 0 mm 1 mps 710 mmHg 77%
    04:00 +23°C° 0 mm 1 mps 710 mmHg 79%
    05:00 +23°C° 0 mm 1 mps 710 mmHg 82%
    06:00 +24°C° 0 mm 1 mps 711 mmHg 76%
    07:00 +25°C° 0 mm 2 mps 711 mmHg 69%
    08:00 +26°C° 0 mm 2 mps 711 mmHg 63%
    09:00 +28°C° 0 mm 2 mps 712 mmHg 55%
    10:00 +29°C° 0 mm 3 mps 712 mmHg 46%
    11:00 +31°C° 0 mm 3 mps 712 mmHg 38%
    12:00 +32°C° 0 mm 4 mps 712 mmHg 35%
    13:00 +33°C° 0 mm 4 mps 711 mmHg 32%
    14:00 +34°C° 0 mm 5 mps 711 mmHg 30%
    15:00 +33°C° 0 mm 5 mps 711 mmHg 33%
    16:00 +32°C° 0 mm 5 mps 711 mmHg 37%
    17:00 +30°C° 0 mm 5 mps 710 mmHg 40%
    18:00 +28°C° 0 mm 5 mps 710 mmHg 46%
    19:00 +27°C° 0 mm 4 mps 711 mmHg 51%
    20:00 +26°C° 0 mm 3 mps 711 mmHg 56%
    21:00 +26°C° 0 mm 3 mps 711 mmHg 60%
    22:00 +25°C° 0 mm 2 mps 711 mmHg 63%
    23:00 +24°C° 0 mm 2 mps 711 mmHg 66%

    Day after tomorrow, 21 September, Friday

    Time Temperature Precipitation Wind Pressure Humidity
    00:00 +24°C° 0 mm 2 mps 710 mmHg 69%
    01:00 +23°C° 0 mm 1 mps 710 mmHg 71%
    02:00 +23°C° 0 mm 1 mps 710 mmHg 73%
    03:00 +22°C° 0 mm 1 mps 710 mmHg 75%
    04:00 +22°C° 0 mm 1 mps 710 mmHg 76%
    05:00 +22°C° 0 mm 1 mps 710 mmHg 77%
    06:00 +23°C° 0 mm 1 mps 710 mmHg 70%
    07:00 +24°C° 0 mm 1 mps 711 mmHg 62%
    08:00 +25°C° 0 mm 2 mps 711 mmHg 54%
    09:00 +27°C° 0 mm 2 mps 712 mmHg 46%
    10:00 +29°C° 0 mm 2 mps 712 mmHg 38%
    11:00 +30°C° 0 mm 2 mps 712 mmHg 29%
    12:00 +31°C° 0 mm 3 mps 711 mmHg 27%
    13:00 +33°C° 0 mm 4 mps 711 mmHg 25%
    14:00 +34°C° 0 mm 4 mps 711 mmHg 24%
    15:00 +33°C° 0 mm 4 mps 711 mmHg 28%
    16:00 +32°C° 0 mm 5 mps 710 mmHg 33%
    17:00 +30°C° 0 mm 5 mps 710 mmHg 37%
    18:00 +28°C° 0 mm 4 mps 710 mmHg 43%
    19:00 +27°C° 0 mm 3 mps 711 mmHg 49%
    20:00 +26°C° 0 mm 3 mps 711 mmHg 55%
    21:00 +25°C° 0 mm 2 mps 711 mmHg 58%
    22:00 +25°C° 0 mm 2 mps 711 mmHg 62%
    23:00 +24°C° 0 mm 2 mps 711 mmHg 65%

    22 September, Saturday

    Time Temperature Precipitation Wind Pressure Humidity
    00:00 +24°C° 0 mm 1 mps 711 mmHg 67%
    01:00 +23°C° 0 mm 1 mps 711 mmHg 69%
    02:00 +23°C° 0 mm 1 mps 710 mmHg 71%
    03:00 +22°C° 0 mm 1 mps 710 mmHg 73%
    04:00 +22°C° 0 mm 1 mps 710 mmHg 75%
    05:00 +21°C° 0 mm 1 mps 710 mmHg 76%
    06:00 +23°C° 0 mm 1 mps 711 mmHg 71%
    07:00 +24°C° 0 mm 1 mps 711 mmHg 65%
    08:00 +25°C° 0 mm 1 mps 712 mmHg 59%
    09:00 +27°C° 0 mm 1 mps 712 mmHg 50%
    10:00 +29°C° 0 mm 2 mps 712 mmHg 41%
    11:00 +30°C° 0 mm 2 mps 712 mmHg 33%
    12:00 +31°C° 0 mm 2 mps 712 mmHg 30%
    13:00 +33°C° 0 mm 3 mps 711 mmHg 27%
    14:00 +34°C° 0 mm 4 mps 711 mmHg 25%
    15:00 +33°C° 0 mm 4 mps 711 mmHg 30%
    16:00 +32°C° 0 mm 4 mps 711 mmHg 35%
    17:00 +30°C° 0 mm 4 mps 711 mmHg 40%
    18:00 +29°C° 0 mm 4 mps 711 mmHg 46%
    19:00 +28°C° 0 mm 3 mps 711 mmHg 53%
    20:00 +27°C° 0 mm 2 mps 711 mmHg 59%
    21:00 +26°C° 0 mm 2 mps 711 mmHg 62%
    22:00 +25°C° 0 mm 2 mps 711 mmHg 65%
    23:00 +25°C° 0 mm 2 mps 711 mmHg 67%

    23 September, Sunday

    Time Temperature Precipitation Wind Pressure Humidity
    00:00 +24°C° 0 mm 1 mps 711 mmHg 69%
    01:00 +24°C° 0 mm 1 mps 711 mmHg 71%
    02:00 +23°C° 0 mm 1 mps 711 mmHg 73%
    03:00 +23°C° 0 mm 1 mps 711 mmHg 74%
    04:00 +22°C° 0 mm 1 mps 711 mmHg 76%
    05:00 +22°C° 0 mm 1 mps 711 mmHg 77%
    06:00 +23°C° 0 mm 1 mps 711 mmHg 70%
    07:00 +24°C° 0 mm 1 mps 712 mmHg 63%
    08:00 +26°C° 0 mm 1 mps 712 mmHg 56%
    09:00 +28°C° 0 mm 1 mps 712 mmHg 48%
    10:00 +29°C° 0 mm 2 mps 712 mmHg 39%
    11:00 +31°C° 0 mm 2 mps 713 mmHg 31%
    12:00 +33°C° 0 mm 3 mps 712 mmHg 28%
    13:00 +34°C° 0 mm 3 mps 712 mmHg 26%
    14:00 +35°C° 0 mm 4 mps 711 mmHg 24%
    15:00 +34°C° 0 mm 4 mps 711 mmHg 28%
    16:00 +33°C° 0 mm 4 mps 711 mmHg 33%
    17:00 +32°C° 0 mm 4 mps 711 mmHg 37%
    18:00 +29°C° 0 mm 4 mps 711 mmHg 43%
    19:00 +28°C° 0 mm 3 mps 711 mmHg 49%
    20:00 +27°C° 0 mm 2 mps 711 mmHg 55%
    21:00 +26°C° 0 mm 2 mps 711 mmHg 59%
    22:00 +25°C° 0 mm 2 mps 711 mmHg 62%
    23:00 +25°C° 0 mm 1 mps 711 mmHg 66%

    24 September, Monday

    Time Temperature Precipitation Wind Pressure Humidity
    00:00 +24°C° 0 mm 1 mps 711 mmHg 68%
    01:00 +24°C° 0 mm 1 mps 711 mmHg 70%
    02:00 +23°C° 0 mm 1 mps 710 mmHg 72%
    03:00 +23°C° 0 mm 1 mps 710 mmHg 73%
    04:00 +20°C° 0 mm 0 mps 710 mmHg 74%
    05:00 +20°C° 0 mm 0 mps 711 mmHg 75%
    06:00 +21°C° 0 mm 0 mps 711 mmHg 66%
    07:00 +23°C° 0 mm 0 mps 711 mmHg 57%
    08:00 +25°C° 0 mm 0 mps 712 mmHg 48%
    09:00 +27°C° 0 mm 0 mps 712 mmHg 39%
    10:00 +31°C° 0 mm 1 mps 712 mmHg 31%
    11:00 +33°C° 0 mm 1 mps 712 mmHg 22%
    12:00 +34°C° 0 mm 1 mps 711 mmHg 20%
    13:00 +35°C° 0 mm 2 mps 711 mmHg 18%
    14:00 +36°C° 0 mm 2 mps 710 mmHg 15%
    15:00 +36°C° 0 mm 3 mps 710 mmHg 18%
    16:00 +35°C° 0 mm 3 mps 710 mmHg 21%
    17:00 +34°C° 0 mm 4 mps 710 mmHg 24%
    18:00 +31°C° 0 mm 3 mps 710 mmHg 31%
    19:00 +30°C° 0 mm 2 mps 710 mmHg 37%
    20:00 +28°C° 0 mm 2 mps 710 mmHg 44%
    21:00 +28°C° 0 mm 2 mps 710 mmHg 47%
    22:00 +27°C° 0 mm 1 mps 710 mmHg 51%
    23:00 +26°C° 0 mm 1 mps 710 mmHg 55%
    Show more